Terminal Aerodrome Forecast
Issued by NWS

Home | Current Version | Previous Version | Text Only | Print | Product List | Glossary On
Versions: 1 2 3 4 5 6 7 8 9 10 11 12 13 14 15 16
000
FTUS41 KBTV 232333
TAFRUT
TAF
KRUT 232333Z 2400/2424 14006KT P6SM BKN050
     FM240900 14012KT 4SM -RA BR OVC015
     FM241200 15010KT 2SM RA BR OVC007
     FM241600 20010KT 4SM BR OVC015
      AMD LTD TO CLD VIS AND WIND=

USA.gov is the U.S. government's official web portal to all federal, state and local government web resources and services.